Year,Month,Day,Hour,Minute,Value (Times are PST for temperature in C)
2018,06,26,00,00,14.40
2018,06,26,00,01,14.40
2018,06,26,00,02,14.40
2018,06,26,00,03,14.40
2018,06,26,00,04,14.40
2018,06,26,00,05,14.40
2018,06,26,00,06,14.40
2018,06,26,00,07,14.30
2018,06,26,00,08,14.30
2018,06,26,00,09,14.40
2018,06,26,00,10,14.40
2018,06,26,00,11,14.40
2018,06,26,00,12,14.40
2018,06,26,00,13,14.40
2018,06,26,00,14,14.40
2018,06,26,00,15,14.30
2018,06,26,00,16,14.30
2018,06,26,00,17,14.30
2018,06,26,00,18,14.30
2018,06,26,00,19,14.30
2018,06,26,00,20,14.30
2018,06,26,00,21,14.30
2018,06,26,00,22,14.30
2018,06,26,00,23,14.30
2018,06,26,00,24,14.30
2018,06,26,00,25,14.30
2018,06,26,00,26,14.30
2018,06,26,00,27,14.30
2018,06,26,00,28,14.30
2018,06,26,00,29,14.30
2018,06,26,00,30,14.30
2018,06,26,00,31,14.30
2018,06,26,00,32,14.30
2018,06,26,00,33,14.30
2018,06,26,00,34,14.30
2018,06,26,00,35,14.30
2018,06,26,00,36,14.30
2018,06,26,00,37,14.20
2018,06,26,00,38,14.20
2018,06,26,00,39,14.20
2018,06,26,00,40,14.20
2018,06,26,00,41,14.20
2018,06,26,00,42,14.20
2018,06,26,00,43,14.20
2018,06,26,00,44,14.20
2018,06,26,00,45,14.20
2018,06,26,00,46,14.20
2018,06,26,00,47,14.20
2018,06,26,00,48,14.20
2018,06,26,00,49,14.20
2018,06,26,00,50,14.20
2018,06,26,00,51,14.20
2018,06,26,00,52,14.20
2018,06,26,00,53,14.20
2018,06,26,00,54,14.10
2018,06,26,00,55,14.10
2018,06,26,00,56,14.10
2018,06,26,00,57,14.10
2018,06,26,00,58,14.10
2018,06,26,00,59,14.10
2018,06,26,01,00,14.10
2018,06,26,01,01,14.00
2018,06,26,01,02,14.10
2018,06,26,01,03,14.00
2018,06,26,01,04,14.10
2018,06,26,01,05,14.00
2018,06,26,01,06,14.00
2018,06,26,01,07,14.00
2018,06,26,01,08,14.00
2018,06,26,01,09,14.00
2018,06,26,01,10,14.00
2018,06,26,01,11,14.00
2018,06,26,01,12,13.90
2018,06,26,01,13,13.90
2018,06,26,01,14,13.90
2018,06,26,01,15,13.90
2018,06,26,01,16,13.90
2018,06,26,01,17,13.90
2018,06,26,01,18,13.90
2018,06,26,01,19,13.90
2018,06,26,01,20,13.80
2018,06,26,01,21,13.80
2018,06,26,01,22,13.80
2018,06,26,01,23,13.80
2018,06,26,01,24,13.80
2018,06,26,01,25,13.80
2018,06,26,01,26,13.80
2018,06,26,01,27,13.80
2018,06,26,01,28,13.80
2018,06,26,01,29,13.80
2018,06,26,01,30,13.80
2018,06,26,01,31,13.80
2018,06,26,01,32,13.80
2018,06,26,01,33,13.80
2018,06,26,01,34,13.80
2018,06,26,01,35,13.80
2018,06,26,01,36,13.80
2018,06,26,01,37,13.80
2018,06,26,01,38,13.80
2018,06,26,01,39,13.80
2018,06,26,01,40,13.80
2018,06,26,01,41,13.80
2018,06,26,01,42,13.80
2018,06,26,01,43,13.80
2018,06,26,01,44,13.80
2018,06,26,01,45,13.80
2018,06,26,01,46,13.80
2018,06,26,01,47,13.80
2018,06,26,01,48,13.80
2018,06,26,01,49,13.80
2018,06,26,01,50,13.80
2018,06,26,01,51,13.80
2018,06,26,01,52,13.80
2018,06,26,01,53,13.80
2018,06,26,01,54,13.70
2018,06,26,01,55,13.70
2018,06,26,01,56,13.70
2018,06,26,01,57,13.70
2018,06,26,01,58,13.70
2018,06,26,01,59,13.60
2018,06,26,02,00,13.60
2018,06,26,02,01,13.60
2018,06,26,02,02,13.60
2018,06,26,02,03,13.60
2018,06,26,02,04,13.60
2018,06,26,02,05,13.60
2018,06,26,02,06,13.60
2018,06,26,02,07,13.50
2018,06,26,02,08,13.50
2018,06,26,02,09,13.50
2018,06,26,02,10,13.50
2018,06,26,02,11,13.50
2018,06,26,02,12,13.50
2018,06,26,02,13,13.50
2018,06,26,02,14,13.40
2018,06,26,02,15,13.50
2018,06,26,02,16,13.40
2018,06,26,02,17,13.40
2018,06,26,02,18,13.40
2018,06,26,02,19,13.40
2018,06,26,02,20,13.40
2018,06,26,02,21,13.40
2018,06,26,02,22,13.40
2018,06,26,02,23,13.40
2018,06,26,02,24,13.40
2018,06,26,02,25,13.40
2018,06,26,02,26,13.40
2018,06,26,02,27,13.40
2018,06,26,02,28,13.40
2018,06,26,02,29,13.40
2018,06,26,02,30,13.40
2018,06,26,02,31,13.40
2018,06,26,02,32,13.40
2018,06,26,02,33,13.40
2018,06,26,02,34,13.40
2018,06,26,02,35,13.40
2018,06,26,02,36,13.40
2018,06,26,02,37,13.40
2018,06,26,02,38,13.40
2018,06,26,02,39,13.40
2018,06,26,02,40,13.40
2018,06,26,02,41,13.40
2018,06,26,02,42,13.40
2018,06,26,02,43,13.40
2018,06,26,02,44,13.40
2018,06,26,02,45,13.40
2018,06,26,02,46,13.40
2018,06,26,02,47,13.30
2018,06,26,02,48,13.30
2018,06,26,02,49,13.30
2018,06,26,02,50,13.30
2018,06,26,02,51,13.30
2018,06,26,02,52,13.30
2018,06,26,02,53,13.30
2018,06,26,02,54,13.30
2018,06,26,02,55,13.30
2018,06,26,02,56,13.30
2018,06,26,02,57,13.30
2018,06,26,02,58,13.30
2018,06,26,02,59,13.30
2018,06,26,03,00,13.20
2018,06,26,03,01,13.20
2018,06,26,03,02,13.20
2018,06,26,03,03,13.20
2018,06,26,03,04,13.20
2018,06,26,03,05,13.20
2018,06,26,03,06,13.20
2018,06,26,03,07,13.20
2018,06,26,03,08,13.20
2018,06,26,03,09,13.20
2018,06,26,03,10,13.20
2018,06,26,03,11,13.20
2018,06,26,03,12,13.10
2018,06,26,03,13,13.10
2018,06,26,03,14,13.10
2018,06,26,03,15,13.10
2018,06,26,03,16,13.10
2018,06,26,03,17,13.10
2018,06,26,03,18,13.10
2018,06,26,03,19,13.10
2018,06,26,03,20,13.10
2018,06,26,03,21,13.00
2018,06,26,03,22,13.00
2018,06,26,03,23,12.90
2018,06,26,03,24,12.90
2018,06,26,03,25,12.90
2018,06,26,03,26,12.80
2018,06,26,03,27,12.80
2018,06,26,03,28,12.80
2018,06,26,03,29,12.80
2018,06,26,03,30,12.70
2018,06,26,03,31,12.70
2018,06,26,03,32,12.70
2018,06,26,03,33,12.70
2018,06,26,03,34,12.70
2018,06,26,03,35,12.70
2018,06,26,03,36,12.60
2018,06,26,03,37,12.60
2018,06,26,03,38,12.60
2018,06,26,03,39,12.60
2018,06,26,03,40,12.60
2018,06,26,03,41,12.50
2018,06,26,03,42,12.50
2018,06,26,03,43,12.40
2018,06,26,03,44,12.40
2018,06,26,03,45,12.30
2018,06,26,03,46,12.30
2018,06,26,03,47,12.30
2018,06,26,03,48,12.20
2018,06,26,03,49,12.20
2018,06,26,03,50,12.10
2018,06,26,03,51,12.10
2018,06,26,03,52,12.10
2018,06,26,03,53,12.00
2018,06,26,03,54,12.00
2018,06,26,03,55,11.90
2018,06,26,03,56,11.90
2018,06,26,03,57,11.90
2018,06,26,03,58,11.80
2018,06,26,03,59,11.80
2018,06,26,04,00,11.80
2018,06,26,04,01,11.80
2018,06,26,04,02,11.70
2018,06,26,04,03,11.70
2018,06,26,04,04,11.70
2018,06,26,04,05,11.70
2018,06,26,04,06,11.60
2018,06,26,04,07,11.60
2018,06,26,04,08,11.50
2018,06,26,04,09,11.50
2018,06,26,04,10,11.40
2018,06,26,04,11,11.40
2018,06,26,04,12,11.30
2018,06,26,04,13,11.30
2018,06,26,04,14,11.30
2018,06,26,04,15,11.30
2018,06,26,04,16,11.30
2018,06,26,04,17,11.20
2018,06,26,04,18,11.20
2018,06,26,04,19,11.20
2018,06,26,04,20,11.20
2018,06,26,04,21,11.10
2018,06,26,04,22,11.10
2018,06,26,04,23,11.10
2018,06,26,04,24,11.10
2018,06,26,04,25,11.00
2018,06,26,04,26,11.00
2018,06,26,04,27,11.00
2018,06,26,04,28,10.90
2018,06,26,04,29,10.90
2018,06,26,04,30,10.90
2018,06,26,04,31,10.90
2018,06,26,04,32,10.80
2018,06,26,04,33,10.80
2018,06,26,04,34,10.80
2018,06,26,04,35,10.70
2018,06,26,04,36,10.70
2018,06,26,04,37,10.70
2018,06,26,04,38,10.70
2018,06,26,04,39,10.60
2018,06,26,04,40,10.60
2018,06,26,04,41,10.60
2018,06,26,04,42,10.60
2018,06,26,04,43,10.50
2018,06,26,04,44,10.50
2018,06,26,04,45,10.50
2018,06,26,04,46,10.40
2018,06,26,04,47,10.40
2018,06,26,04,48,10.40
2018,06,26,04,49,10.40
2018,06,26,04,50,10.40
2018,06,26,04,51,10.30
2018,06,26,04,52,10.30
2018,06,26,04,53,10.30
2018,06,26,04,54,10.30
2018,06,26,04,55,10.30
2018,06,26,04,56,10.30
2018,06,26,04,57,10.30
2018,06,26,04,58,10.30
2018,06,26,04,59,10.30
2018,06,26,05,00,10.30
2018,06,26,05,01,10.20
2018,06,26,05,02,10.20
2018,06,26,05,03,10.20
2018,06,26,05,04,10.20
2018,06,26,05,05,10.20
2018,06,26,05,06,10.20
2018,06,26,05,07,10.10
2018,06,26,05,08,10.10
2018,06,26,05,09,10.10
2018,06,26,05,10,10.10
2018,06,26,05,11,10.10
2018,06,26,05,12,10.10
2018,06,26,05,13,10.00
2018,06,26,05,14,10.00
2018,06,26,05,15,10.00
2018,06,26,05,16,10.00
2018,06,26,05,17,9.90
2018,06,26,05,18,9.90
2018,06,26,05,19,9.90
2018,06,26,05,20,9.90
2018,06,26,05,21,9.90
2018,06,26,05,22,9.90
2018,06,26,05,23,9.90
2018,06,26,05,24,9.90
2018,06,26,05,25,9.90
2018,06,26,05,26,9.90
2018,06,26,05,27,9.90
2018,06,26,05,28,9.90
2018,06,26,05,29,9.90
2018,06,26,05,30,9.90
2018,06,26,05,31,9.90
2018,06,26,05,32,9.90
2018,06,26,05,33,9.90
2018,06,26,05,34,9.90
2018,06,26,05,35,10.00
2018,06,26,05,36,10.00
2018,06,26,05,37,10.00
2018,06,26,05,38,10.00
2018,06,26,05,39,10.00
2018,06,26,05,40,9.90
2018,06,26,05,41,9.90
2018,06,26,05,42,9.90
2018,06,26,05,43,9.90
2018,06,26,05,44,9.80
2018,06,26,05,45,9.80
2018,06,26,05,46,9.80
2018,06,26,05,47,9.80
2018,06,26,05,48,9.80
2018,06,26,05,49,9.80
2018,06,26,05,50,9.70
2018,06,26,05,51,9.70
2018,06,26,05,52,9.70
2018,06,26,05,53,9.70
2018,06,26,05,54,9.70
2018,06,26,05,55,9.70
2018,06,26,05,56,9.80
2018,06,26,05,57,9.80
2018,06,26,05,58,9.80
2018,06,26,05,59,9.80
2018,06,26,06,00,9.80
2018,06,26,06,01,9.80
2018,06,26,06,02,9.80
2018,06,26,06,03,9.80
2018,06,26,06,04,9.80
2018,06,26,06,05,9.80
2018,06,26,06,06,9.80
2018,06,26,06,07,9.80
2018,06,26,06,08,9.80
2018,06,26,06,09,9.80
2018,06,26,06,10,9.80
2018,06,26,06,11,9.80
2018,06,26,06,12,9.70
2018,06,26,06,13,9.70
2018,06,26,06,14,9.70
2018,06,26,06,15,9.70
2018,06,26,06,16,9.70
2018,06,26,06,17,9.70
2018,06,26,06,18,9.70
2018,06,26,06,19,9.70
2018,06,26,06,20,9.70
2018,06,26,06,21,9.70
2018,06,26,06,22,9.70
2018,06,26,06,23,9.70
2018,06,26,06,24,9.70
2018,06,26,06,25,9.70
2018,06,26,06,26,9.70
2018,06,26,06,27,9.70
2018,06,26,06,28,9.70
2018,06,26,06,29,9.70
2018,06,26,06,30,9.70
2018,06,26,06,31,9.70
2018,06,26,06,32,9.70
2018,06,26,06,33,9.80
2018,06,26,06,34,9.80
2018,06,26,06,35,9.80
2018,06,26,06,36,9.80
2018,06,26,06,37,9.90
2018,06,26,06,38,9.90
2018,06,26,06,39,9.90
2018,06,26,06,40,10.00
2018,06,26,06,41,10.10
2018,06,26,06,42,10.10
2018,06,26,06,43,10.10
2018,06,26,06,44,10.20
2018,06,26,06,45,10.30
2018,06,26,06,46,10.30
2018,06,26,06,47,10.40
2018,06,26,06,48,10.50
2018,06,26,06,49,10.60
2018,06,26,06,50,10.70
2018,06,26,06,51,10.80
2018,06,26,06,52,10.90
2018,06,26,06,53,11.00
2018,06,26,06,54,11.10
2018,06,26,06,55,11.20
2018,06,26,06,56,11.30
2018,06,26,06,57,11.40
2018,06,26,06,58,11.50
2018,06,26,06,59,11.50
2018,06,26,07,00,11.60
2018,06,26,07,01,11.70
2018,06,26,07,02,11.70
2018,06,26,07,03,11.80
2018,06,26,07,04,11.80
2018,06,26,07,05,11.80
2018,06,26,07,06,11.90
2018,06,26,07,07,11.90
2018,06,26,07,08,12.00
2018,06,26,07,09,12.10
2018,06,26,07,10,12.10
2018,06,26,07,11,12.20
2018,06,26,07,12,12.20
2018,06,26,07,13,12.30
2018,06,26,07,14,12.40
2018,06,26,07,15,12.40
2018,06,26,07,16,12.50
2018,06,26,07,17,12.50
2018,06,26,07,18,12.60
2018,06,26,07,19,12.70
2018,06,26,07,20,12.70
2018,06,26,07,21,12.80
2018,06,26,07,22,12.80
2018,06,26,07,23,12.80
2018,06,26,07,24,12.90
2018,06,26,07,25,12.90
2018,06,26,07,26,13.00
2018,06,26,07,27,13.00
2018,06,26,07,28,13.10
2018,06,26,07,29,13.20
2018,06,26,07,30,13.20
2018,06,26,07,31,13.30
2018,06,26,07,32,13.30
2018,06,26,07,33,13.40
2018,06,26,07,34,13.40
2018,06,26,07,35,13.50
2018,06,26,07,36,13.60
2018,06,26,07,37,13.60
2018,06,26,07,38,13.60
2018,06,26,07,39,13.60
2018,06,26,07,40,13.60
2018,06,26,07,41,13.70
2018,06,26,07,42,13.70
2018,06,26,07,43,13.70
2018,06,26,07,44,13.80
2018,06,26,07,45,13.80
2018,06,26,07,46,13.90
2018,06,26,07,47,13.90
2018,06,26,07,48,14.00
2018,06,26,07,49,14.10
2018,06,26,07,50,14.10
2018,06,26,07,51,14.10
2018,06,26,07,52,14.10
2018,06,26,07,53,14.10
2018,06,26,07,54,14.10
2018,06,26,07,55,14.20
2018,06,26,07,56,14.20
2018,06,26,07,57,14.20
2018,06,26,07,58,14.30
2018,06,26,07,59,14.40
2018,06,26,08,00,14.40
2018,06,26,08,01,14.50
2018,06,26,08,02,14.50
2018,06,26,08,03,14.60
2018,06,26,08,04,14.70
2018,06,26,08,05,14.70
2018,06,26,08,06,14.80
2018,06,26,08,07,14.80
2018,06,26,08,08,14.80
2018,06,26,08,09,14.90
2018,06,26,08,10,14.90
2018,06,26,08,11,15.00
2018,06,26,08,12,15.00
2018,06,26,08,13,15.00
2018,06,26,08,14,15.10
2018,06,26,08,15,15.10
2018,06,26,08,16,15.00
2018,06,26,08,17,15.00
2018,06,26,08,18,15.00
2018,06,26,08,19,15.00
2018,06,26,08,20,15.10
2018,06,26,08,21,15.20
2018,06,26,08,22,15.30
2018,06,26,08,23,15.40
2018,06,26,08,24,15.50
2018,06,26,08,25,15.50
2018,06,26,08,26,15.60
2018,06,26,08,27,15.70
2018,06,26,08,28,15.70
2018,06,26,08,29,15.80
2018,06,26,08,30,15.80
2018,06,26,08,31,15.80
2018,06,26,08,32,15.80
2018,06,26,08,33,15.80
2018,06,26,08,34,15.80
2018,06,26,08,35,15.80
2018,06,26,08,36,15.80
2018,06,26,08,37,15.70
2018,06,26,08,38,15.70
2018,06,26,08,39,15.70
2018,06,26,08,40,15.70
2018,06,26,08,41,15.70
2018,06,26,08,42,15.80
2018,06,26,08,43,15.80
2018,06,26,08,44,15.90
2018,06,26,08,45,15.90
2018,06,26,08,46,16.00
2018,06,26,08,47,16.00
2018,06,26,08,48,16.10
2018,06,26,08,49,16.10
2018,06,26,08,50,16.10
2018,06,26,08,51,16.20
2018,06,26,08,52,16.20
2018,06,26,08,53,16.30
2018,06,26,08,54,16.30
2018,06,26,08,55,16.30
2018,06,26,08,56,16.30
2018,06,26,08,57,16.30
2018,06,26,08,58,16.30
2018,06,26,08,59,16.40
2018,06,26,09,00,16.40
2018,06,26,09,01,16.50
2018,06,26,09,02,16.50
2018,06,26,09,03,16.60
2018,06,26,09,04,16.60
2018,06,26,09,05,16.60
2018,06,26,09,06,16.70
2018,06,26,09,07,16.70
2018,06,26,09,08,16.80
2018,06,26,09,09,16.90
2018,06,26,09,10,17.00
2018,06,26,09,11,17.10
2018,06,26,09,12,17.20
2018,06,26,09,13,17.30
2018,06,26,09,14,17.30
2018,06,26,09,15,17.30
2018,06,26,09,16,17.30
2018,06,26,09,17,17.30
2018,06,26,09,18,17.40
2018,06,26,09,19,17.40
2018,06,26,09,20,17.40
2018,06,26,09,21,17.30
2018,06,26,09,22,17.30
2018,06,26,09,23,17.30
2018,06,26,09,24,17.30
2018,06,26,09,25,17.30
2018,06,26,09,26,17.30
2018,06,26,09,27,17.30
2018,06,26,09,28,17.30
2018,06,26,09,29,17.30
2018,06,26,09,30,17.20
2018,06,26,09,31,17.10
2018,06,26,09,32,17.10
2018,06,26,09,33,17.10
2018,06,26,09,34,17.10
2018,06,26,09,35,17.10
2018,06,26,09,36,17.10
2018,06,26,09,37,17.10
2018,06,26,09,38,17.10
2018,06,26,09,39,17.20
2018,06,26,09,40,17.20
2018,06,26,09,41,17.30
2018,06,26,09,42,17.30
2018,06,26,09,43,17.30
2018,06,26,09,44,17.40
2018,06,26,09,45,17.40
2018,06,26,09,46,17.50
2018,06,26,09,47,17.60
2018,06,26,09,48,17.60
2018,06,26,09,49,17.70
2018,06,26,09,50,17.60
2018,06,26,09,51,17.60
2018,06,26,09,52,17.60
2018,06,26,09,53,17.60
2018,06,26,09,54,17.70
2018,06,26,09,55,17.70
2018,06,26,09,56,17.60
2018,06,26,09,57,17.60
2018,06,26,09,58,17.60
2018,06,26,09,59,17.60
2018,06,26,10,00,17.50
2018,06,26,10,01,17.40
2018,06,26,10,02,17.30
2018,06,26,10,03,17.30
2018,06,26,10,04,17.20
2018,06,26,10,05,17.20
2018,06,26,10,06,17.10
2018,06,26,10,07,17.10
2018,06,26,10,08,17.10
2018,06,26,10,09,17.20
2018,06,26,10,10,17.20
2018,06,26,10,11,17.30
2018,06,26,10,12,17.40
2018,06,26,10,13,17.50
2018,06,26,10,14,17.40
2018,06,26,10,15,17.40
2018,06,26,10,16,17.40
2018,06,26,10,17,17.30
2018,06,26,10,18,17.30
2018,06,26,10,19,17.20
2018,06,26,10,20,17.20
2018,06,26,10,21,17.30
2018,06,26,10,22,17.30
2018,06,26,10,23,17.30
2018,06,26,10,24,17.30
2018,06,26,10,25,17.30
2018,06,26,10,26,17.20
2018,06,26,10,27,17.10
2018,06,26,10,28,17.10
2018,06,26,10,29,17.10
2018,06,26,10,30,17.20
2018,06,26,10,31,17.20
2018,06,26,10,32,17.20
2018,06,26,10,33,17.20
2018,06,26,10,34,17.10
2018,06,26,10,35,17.10
2018,06,26,10,36,17.10
2018,06,26,10,37,17.00
2018,06,26,10,38,17.00
2018,06,26,10,39,16.90
2018,06,26,10,40,16.90
2018,06,26,10,41,16.90
2018,06,26,10,42,16.80
2018,06,26,10,43,16.80
2018,06,26,10,44,16.90
2018,06,26,10,45,17.00
2018,06,26,10,46,17.10
2018,06,26,10,47,17.20
2018,06,26,10,48,17.30
2018,06,26,10,49,17.40
2018,06,26,10,50,17.40
2018,06,26,10,51,17.50
2018,06,26,10,52,17.50
2018,06,26,10,53,17.50
2018,06,26,10,54,17.50
2018,06,26,10,55,17.60
2018,06,26,10,56,17.60
2018,06,26,10,57,17.60
2018,06,26,10,58,17.60
2018,06,26,10,59,17.70
2018,06,26,11,00,17.80
2018,06,26,11,01,17.80
2018,06,26,11,02,17.80
2018,06,26,11,03,17.80
2018,06,26,11,04,17.70
2018,06,26,11,05,17.70
2018,06,26,11,06,17.80
2018,06,26,11,07,17.80
2018,06,26,11,08,17.90
2018,06,26,11,09,17.90
2018,06,26,11,10,18.00
2018,06,26,11,11,18.10
2018,06,26,11,12,18.20
2018,06,26,11,13,18.20
2018,06,26,11,14,18.10
2018,06,26,11,15,18.10
2018,06,26,11,16,18.20
2018,06,26,11,17,18.20
2018,06,26,11,18,18.20
2018,06,26,11,19,18.20
2018,06,26,11,20,18.20
2018,06,26,11,21,18.20
2018,06,26,11,22,18.20
2018,06,26,11,23,18.10
2018,06,26,11,24,18.20
2018,06,26,11,25,18.30
2018,06,26,11,26,18.30
2018,06,26,11,27,18.30
2018,06,26,11,28,18.30
2018,06,26,11,29,18.20
2018,06,26,11,30,18.20
2018,06,26,11,31,18.20
2018,06,26,11,32,18.10
2018,06,26,11,33,18.10
2018,06,26,11,34,18.10
2018,06,26,11,35,18.10
2018,06,26,11,36,18.10
2018,06,26,11,37,18.20
2018,06,26,11,38,18.30
2018,06,26,11,39,18.30
2018,06,26,11,40,18.30
2018,06,26,11,41,18.30
2018,06,26,11,42,18.40
2018,06,26,11,43,18.40
2018,06,26,11,44,18.40
2018,06,26,11,45,18.40
2018,06,26,11,46,18.40
2018,06,26,11,47,18.40
2018,06,26,11,48,18.40
2018,06,26,11,49,18.50
2018,06,26,11,50,18.50
2018,06,26,11,51,18.60
2018,06,26,11,52,18.60
2018,06,26,11,53,18.60
2018,06,26,11,54,18.70
2018,06,26,11,55,18.70
2018,06,26,11,56,18.70
2018,06,26,11,57,18.70
2018,06,26,11,58,18.70
2018,06,26,11,59,18.70
2018,06,26,12,00,18.70
2018,06,26,12,01,18.60
2018,06,26,12,02,18.60
2018,06,26,12,03,18.50
2018,06,26,12,04,18.40
2018,06,26,12,05,18.40
2018,06,26,12,06,18.40
2018,06,26,12,07,18.50
2018,06,26,12,08,18.60
2018,06,26,12,09,18.60
2018,06,26,12,10,18.60
2018,06,26,12,11,18.60
2018,06,26,12,12,18.50
2018,06,26,12,13,18.50
2018,06,26,12,14,18.50
2018,06,26,12,15,18.50
2018,06,26,12,16,18.50
2018,06,26,12,17,18.50
2018,06,26,12,18,18.50
2018,06,26,12,19,18.50
2018,06,26,12,20,18.50
2018,06,26,12,21,18.60
2018,06,26,12,22,18.60
2018,06,26,12,23,18.70
2018,06,26,12,24,18.70
2018,06,26,12,25,18.80
2018,06,26,12,26,18.80
2018,06,26,12,27,18.80
2018,06,26,12,28,18.70
2018,06,26,12,29,18.70
2018,06,26,12,30,18.70
2018,06,26,12,31,18.60
2018,06,26,12,32,18.60
2018,06,26,12,33,18.50
2018,06,26,12,34,18.50
2018,06,26,12,35,18.40
2018,06,26,12,36,18.40
2018,06,26,12,37,18.30
2018,06,26,12,38,18.40
2018,06,26,12,39,18.50
2018,06,26,12,40,18.50
2018,06,26,12,41,18.60
2018,06,26,12,42,18.70
2018,06,26,12,43,18.90
2018,06,26,12,44,19.00
2018,06,26,12,45,19.10
2018,06,26,12,46,19.00
2018,06,26,12,47,19.00
2018,06,26,12,48,19.00
2018,06,26,12,49,19.00
2018,06,26,12,50,19.00
2018,06,26,12,51,19.10
2018,06,26,12,52,19.10
2018,06,26,12,53,19.20
2018,06,26,12,54,19.30
2018,06,26,12,55,19.40
2018,06,26,12,56,19.50
2018,06,26,12,57,19.40
2018,06,26,12,58,19.40
2018,06,26,12,59,19.30
2018,06,26,13,00,19.30
2018,06,26,13,01,19.20
2018,06,26,13,02,19.20
2018,06,26,13,03,19.10
2018,06,26,13,04,19.00
2018,06,26,13,05,18.90
2018,06,26,13,06,18.90
2018,06,26,13,07,18.90
2018,06,26,13,08,18.90
2018,06,26,13,09,19.00
2018,06,26,13,10,19.10
2018,06,26,13,11,19.10
2018,06,26,13,12,19.10
2018,06,26,13,13,19.10
2018,06,26,13,14,19.10
2018,06,26,13,15,19.20
2018,06,26,13,16,19.20
2018,06,26,13,17,19.20
2018,06,26,13,18,19.20
2018,06,26,13,19,19.10
2018,06,26,13,20,19.10
2018,06,26,13,21,19.10
2018,06,26,13,22,19.10
2018,06,26,13,23,19.10
2018,06,26,13,24,19.00
2018,06,26,13,25,19.00
2018,06,26,13,26,19.00
2018,06,26,13,27,19.10
2018,06,26,13,28,19.10
2018,06,26,13,29,19.10
2018,06,26,13,30,19.20
2018,06,26,13,31,19.20
2018,06,26,13,32,19.20
2018,06,26,13,33,19.30
2018,06,26,13,34,19.40
2018,06,26,13,35,19.40
2018,06,26,13,36,19.40
2018,06,26,13,37,19.40
2018,06,26,13,38,19.40
2018,06,26,13,39,19.40
2018,06,26,13,40,19.40
2018,06,26,13,41,19.30
2018,06,26,13,42,19.30
2018,06,26,13,43,19.30
2018,06,26,13,44,19.30
2018,06,26,13,45,19.20
2018,06,26,13,46,19.10
2018,06,26,13,47,18.90
2018,06,26,13,48,18.90
2018,06,26,13,49,18.90
2018,06,26,13,50,19.00
2018,06,26,13,51,19.00
2018,06,26,13,52,19.10
2018,06,26,13,53,19.10
2018,06,26,13,54,19.20
2018,06,26,13,55,19.20
2018,06,26,13,56,19.20
2018,06,26,13,57,19.10
2018,06,26,13,58,19.10
2018,06,26,13,59,19.00
2018,06,26,14,00,19.00
2018,06,26,14,01,19.10
2018,06,26,14,02,19.10
2018,06,26,14,03,19.20
2018,06,26,14,04,19.30
2018,06,26,14,05,19.40
2018,06,26,14,06,19.40
2018,06,26,14,07,19.50
2018,06,26,14,08,19.60
2018,06,26,14,09,19.60
2018,06,26,14,10,19.60
2018,06,26,14,11,19.50
2018,06,26,14,12,19.50
2018,06,26,14,13,19.50
2018,06,26,14,14,19.50
2018,06,26,14,15,19.60
2018,06,26,14,16,19.70
2018,06,26,14,17,19.70
2018,06,26,14,18,19.70
2018,06,26,14,19,19.60
2018,06,26,14,20,19.60
2018,06,26,14,21,19.60
2018,06,26,14,22,19.70
2018,06,26,14,23,19.70
2018,06,26,14,24,19.60
2018,06,26,14,25,19.60
2018,06,26,14,26,19.60
2018,06,26,14,27,19.60
2018,06,26,14,28,19.70
2018,06,26,14,29,19.70
2018,06,26,14,30,19.70
2018,06,26,14,31,19.80
2018,06,26,14,32,19.70
2018,06,26,14,33,19.70
2018,06,26,14,34,19.70
2018,06,26,14,35,19.70
2018,06,26,14,36,19.70
2018,06,26,14,37,19.70
2018,06,26,14,38,19.70
2018,06,26,14,39,19.60
2018,06,26,14,40,19.50
2018,06,26,14,41,19.40
2018,06,26,14,42,19.40
2018,06,26,14,43,19.30
2018,06,26,14,44,19.30
2018,06,26,14,45,19.20
2018,06,26,14,46,19.20
2018,06,26,14,47,19.30
2018,06,26,14,48,19.20
2018,06,26,14,49,19.10
2018,06,26,14,50,19.10
2018,06,26,14,51,19.10
2018,06,26,14,52,19.00
2018,06,26,14,53,19.00
2018,06,26,14,54,18.90
2018,06,26,14,55,18.80
2018,06,26,14,56,18.80
2018,06,26,14,57,18.90
2018,06,26,14,58,19.00
2018,06,26,14,59,19.10
2018,06,26,15,00,19.30
2018,06,26,15,01,19.40
2018,06,26,15,02,19.50
2018,06,26,15,03,19.60
2018,06,26,15,04,19.70
2018,06,26,15,05,19.70
2018,06,26,15,06,19.80
2018,06,26,15,07,19.80
2018,06,26,15,08,19.80
2018,06,26,15,09,19.80
2018,06,26,15,10,19.80
2018,06,26,15,11,19.70
2018,06,26,15,12,19.60
2018,06,26,15,13,19.50
2018,06,26,15,14,19.50
2018,06,26,15,15,19.40
2018,06,26,15,16,19.30
2018,06,26,15,17,19.30
2018,06,26,15,18,19.20
2018,06,26,15,19,19.20
2018,06,26,15,20,19.20
2018,06,26,15,21,19.20
2018,06,26,15,22,19.10
2018,06,26,15,23,19.00
2018,06,26,15,24,19.00
2018,06,26,15,25,19.00
2018,06,26,15,26,19.00
2018,06,26,15,27,19.00
2018,06,26,15,28,19.00
2018,06,26,15,29,19.00
2018,06,26,15,30,18.90
2018,06,26,15,31,18.90
2018,06,26,15,32,18.90
2018,06,26,15,33,19.00
2018,06,26,15,34,19.10
2018,06,26,15,35,19.20
2018,06,26,15,36,19.20
2018,06,26,15,37,19.30
2018,06,26,15,38,19.30
2018,06,26,15,39,19.30
2018,06,26,15,40,19.30
2018,06,26,15,41,19.30
2018,06,26,15,42,19.30
2018,06,26,15,43,19.30
2018,06,26,15,44,19.20
2018,06,26,15,45,19.10
2018,06,26,15,46,19.00
2018,06,26,15,47,19.00
2018,06,26,15,48,19.10
2018,06,26,15,49,19.20
2018,06,26,15,50,19.30
2018,06,26,15,51,19.30
2018,06,26,15,52,19.30
2018,06,26,15,53,19.30
2018,06,26,15,54,19.40
2018,06,26,15,55,19.40
2018,06,26,15,56,19.50
2018,06,26,15,57,19.50
2018,06,26,15,58,19.50
2018,06,26,15,59,19.40
2018,06,26,16,00,19.40
2018,06,26,16,01,19.40
2018,06,26,16,02,19.50
2018,06,26,16,03,19.60
2018,06,26,16,04,19.60
2018,06,26,16,05,19.70
2018,06,26,16,06,19.70
2018,06,26,16,07,19.80
2018,06,26,16,08,19.90
2018,06,26,16,09,19.90
2018,06,26,16,10,20.00
2018,06,26,16,11,20.00
2018,06,26,16,12,20.10
2018,06,26,16,13,20.10
2018,06,26,16,14,20.10
2018,06,26,16,15,20.10
2018,06,26,16,16,20.00
2018,06,26,16,17,20.00
2018,06,26,16,18,20.00
2018,06,26,16,19,20.00
2018,06,26,16,20,20.00
2018,06,26,16,21,20.10
2018,06,26,16,22,20.20
2018,06,26,16,23,20.30
2018,06,26,16,24,20.40
2018,06,26,16,25,20.40
2018,06,26,16,26,20.50
2018,06,26,16,27,20.60
2018,06,26,16,28,20.70
2018,06,26,16,29,20.70
2018,06,26,16,30,20.70
2018,06,26,16,31,20.60
2018,06,26,16,32,20.60
2018,06,26,16,33,20.70
2018,06,26,16,34,20.80
2018,06,26,16,35,20.90
2018,06,26,16,36,20.90
2018,06,26,16,37,21.00
2018,06,26,16,38,21.00
2018,06,26,16,39,21.00
2018,06,26,16,40,20.90
2018,06,26,16,41,20.80
2018,06,26,16,42,20.80
2018,06,26,16,43,20.80
2018,06,26,16,44,20.80
2018,06,26,16,45,20.90
2018,06,26,16,46,20.90
2018,06,26,16,47,20.90
2018,06,26,16,48,20.90
2018,06,26,16,49,20.80
2018,06,26,16,50,20.80
2018,06,26,16,51,20.70
2018,06,26,16,52,20.70
2018,06,26,16,53,20.70
2018,06,26,16,54,20.60
2018,06,26,16,55,20.60
2018,06,26,16,56,20.60
2018,06,26,16,57,20.60
2018,06,26,16,58,20.60
2018,06,26,16,59,20.60
2018,06,26,17,00,20.60
2018,06,26,17,01,20.50
2018,06,26,17,02,20.40
2018,06,26,17,03,20.40
2018,06,26,17,04,20.40
2018,06,26,17,05,20.30
2018,06,26,17,06,20.30
2018,06,26,17,07,20.30
2018,06,26,17,08,20.30
2018,06,26,17,09,20.20
2018,06,26,17,10,20.20
2018,06,26,17,11,20.20
2018,06,26,17,12,20.30
2018,06,26,17,13,20.30
2018,06,26,17,14,20.40
2018,06,26,17,15,20.50
2018,06,26,17,16,20.50
2018,06,26,17,17,20.60
2018,06,26,17,18,20.60
2018,06,26,17,19,20.70
2018,06,26,17,20,20.70
2018,06,26,17,21,20.70
2018,06,26,17,22,20.70